When you browse on this site, cookies collect data to enhance your experience and personalize the content and advertising you see.
Visit our Privacy Policy to learn more. By continuing to use the site, you agree to this use of cookies and data.
  • In Slovakia
  • List of Countries
  • For 7 days
  • Water Temperature
  • Satellite Maps
  • Weather Map
  • Weather Widgets
  • user-avatar
    Login

    Hourly Weather Yerevan

    Today, 20 June, Thursday

    Time Temperature Precipitation Wind Pressure Humidity
    00:00 +23°C° 0 mm 1 mps 688 mmHg 62%
    01:00 +22°C° 0 mm 1 mps 688 mmHg 62%
    02:00 +22°C° 0 mm 1 mps 688 mmHg 63%
    03:00 +21°C° 0 mm 1 mps 687 mmHg 64%
    04:00 +22°C° 0 mm 1 mps 688 mmHg 62%
    05:00 +23°C° 0 mm 1 mps 688 mmHg 60%
    06:00 +23°C° 0 mm 1 mps 688 mmHg 58%
    07:00 +25°C° 0.1 mm 1 mps 688 mmHg 53%
    08:00 +26°C° 0.1 mm 1 mps 688 mmHg 48%
    09:00 +28°C° 0.1 mm 1 mps 688 mmHg 43%
    10:00 +29°C° 0.1 mm 2 mps 687 mmHg 38%
    11:00 +31°C° 0.1 mm 2 mps 687 mmHg 34%
    12:00 +33°C° 0.1 mm 3 mps 687 mmHg 29%
    13:00 +34°C° 0 mm 3 mps 687 mmHg 27%
    14:00 +35°C° 0 mm 4 mps 687 mmHg 24%
    15:00 +36°C° 0 mm 4 mps 687 mmHg 21%
    16:00 +34°C° 0.1 mm 5 mps 687 mmHg 28%
    17:00 +30°C° 0.1 mm 5 mps 686 mmHg 36%
    18:00 +28°C° 0.1 mm 6 mps 686 mmHg 43%
    19:00 +26°C° 0.5 mm 4 mps 686 mmHg 51%
    20:00 +25°C° 0.5 mm 3 mps 686 mmHg 59%
    21:00 +23°C° 0.5 mm 2 mps 687 mmHg 67%
    22:00 +21°C° 0.1 mm 2 mps 687 mmHg 70%
    23:00 +22°C° 0.1 mm 1 mps 687 mmHg 73%

    Tomorrow, 21 June, Friday

    Time Temperature Precipitation Wind Pressure Humidity
    00:00 +21°C° 0.1 mm 1 mps 687 mmHg 76%
    01:00 +21°C° 0 mm 1 mps 686 mmHg 76%
    02:00 +20°C° 0 mm 1 mps 686 mmHg 76%
    03:00 +20°C° 0 mm 1 mps 686 mmHg 76%
    04:00 +21°C° 0.1 mm 1 mps 686 mmHg 73%
    05:00 +21°C° 0.1 mm 1 mps 686 mmHg 69%
    06:00 +22°C° 0.1 mm 1 mps 687 mmHg 65%
    07:00 +24°C° 0.2 mm 1 mps 687 mmHg 59%
    08:00 +25°C° 0.2 mm 1 mps 687 mmHg 54%
    09:00 +27°C° 0.2 mm 1 mps 687 mmHg 48%
    10:00 +28°C° 0.1 mm 1 mps 687 mmHg 43%
    11:00 +30°C° 0.1 mm 1 mps 687 mmHg 39%
    12:00 +31°C° 0.1 mm 1 mps 687 mmHg 34%
    13:00 +32°C° 0 mm 1 mps 687 mmHg 31%
    14:00 +33°C° 0 mm 1 mps 687 mmHg 29%
    15:00 +35°C° 0 mm 2 mps 687 mmHg 26%
    16:00 +34°C° 0.1 mm 2 mps 687 mmHg 29%
    17:00 +34°C° 0.1 mm 3 mps 688 mmHg 31%
    18:00 +33°C° 0.1 mm 4 mps 688 mmHg 33%
    19:00 +29°C° 0.2 mm 3 mps 688 mmHg 41%
    20:00 +27°C° 0.2 mm 2 mps 688 mmHg 49%
    21:00 +24°C° 0.2 mm 1 mps 688 mmHg 57%
    22:00 +24°C° 0.1 mm 1 mps 688 mmHg 59%
    23:00 +23°C° 0.1 mm 1 mps 688 mmHg 61%

    Day after tomorrow, 22 June, Saturday

    Time Temperature Precipitation Wind Pressure Humidity
    00:00 +22°C° 0.1 mm 1 mps 688 mmHg 63%
    01:00 +22°C° 0 mm 1 mps 688 mmHg 65%
    02:00 +21°C° 0 mm 1 mps 688 mmHg 66%
    03:00 +21°C° 0 mm 1 mps 688 mmHg 67%
    04:00 +22°C° 0 mm 1 mps 688 mmHg 65%
    05:00 +22°C° 0 mm 1 mps 689 mmHg 63%
    06:00 +23°C° 0 mm 1 mps 689 mmHg 60%
    07:00 +25°C° 0 mm 1 mps 689 mmHg 55%
    08:00 +26°C° 0 mm 1 mps 690 mmHg 49%
    09:00 +28°C° 0 mm 1 mps 690 mmHg 44%
    10:00 +30°C° 0.1 mm 1 mps 690 mmHg 40%
    11:00 +31°C° 0.1 mm 2 mps 690 mmHg 36%
    12:00 +32°C° 0.1 mm 2 mps 690 mmHg 32%
    13:00 +34°C° 0.1 mm 2 mps 690 mmHg 30%
    14:00 +35°C° 0.1 mm 2 mps 690 mmHg 28%
    15:00 +36°C° 0.1 mm 3 mps 690 mmHg 25%
    16:00 +36°C° 0 mm 3 mps 690 mmHg 27%
    17:00 +35°C° 0 mm 4 mps 690 mmHg 29%
    18:00 +34°C° 0 mm 5 mps 689 mmHg 31%
    19:00 +32°C° 0.2 mm 4 mps 690 mmHg 37%
    20:00 +29°C° 0.2 mm 4 mps 690 mmHg 42%
    21:00 +27°C° 0.2 mm 4 mps 690 mmHg 48%
    22:00 +26°C° 1.1 mm 3 mps 690 mmHg 55%
    23:00 +24°C° 1.1 mm 2 mps 690 mmHg 62%

    23 June, Sunday

    Time Temperature Precipitation Wind Pressure Humidity
    00:00 +23°C° 1.1 mm 1 mps 690 mmHg 69%
    01:00 +23°C° 0.3 mm 1 mps 690 mmHg 71%
    02:00 +22°C° 0.3 mm 1 mps 690 mmHg 72%
    03:00 +22°C° 0.3 mm 1 mps 689 mmHg 74%
    04:00 +22°C° 0 mm 1 mps 690 mmHg 71%
    05:00 +23°C° 0 mm 1 mps 690 mmHg 67%
    06:00 +24°C° 0 mm 1 mps 690 mmHg 64%
    07:00 +25°C° 0 mm 1 mps 690 mmHg 59%
    08:00 +27°C° 0 mm 1 mps 690 mmHg 53%
    09:00 +29°C° 0 mm 1 mps 690 mmHg 47%
    10:00 +30°C° 0 mm 1 mps 691 mmHg 43%
    11:00 +32°C° 0 mm 1 mps 691 mmHg 38%
    12:00 +34°C° 0 mm 1 mps 691 mmHg 33%
    13:00 +36°C° 0 mm 2 mps 691 mmHg 30%
    14:00 +37°C° 0 mm 2 mps 690 mmHg 28%
    15:00 +37°C° 0 mm 2 mps 690 mmHg 25%
    16:00 +37°C° 0 mm 2 mps 690 mmHg 26%
    17:00 +37°C° 0 mm 2 mps 690 mmHg 27%
    18:00 +36°C° 0 mm 3 mps 690 mmHg 29%
    19:00 +34°C° 0 mm 3 mps 690 mmHg 33%
    20:00 +31°C° 0 mm 3 mps 690 mmHg 37%
    21:00 +29°C° 0 mm 3 mps 690 mmHg 42%
    22:00 +27°C° 0.1 mm 3 mps 690 mmHg 47%
    23:00 +26°C° 0.1 mm 2 mps 689 mmHg 51%

    24 June, Monday

    Time Temperature Precipitation Wind Pressure Humidity
    00:00 +25°C° 0.1 mm 1 mps 689 mmHg 56%
    01:00 +24°C° 0.1 mm 2 mps 689 mmHg 58%
    02:00 +24°C° 0.1 mm 2 mps 689 mmHg 61%
    03:00 +23°C° 0.1 mm 2 mps 689 mmHg 63%
    04:00 +24°C° 0 mm 2 mps 689 mmHg 62%
    05:00 +24°C° 0 mm 2 mps 689 mmHg 61%
    06:00 +25°C° 0 mm 1 mps 690 mmHg 59%
    07:00 +27°C° 0 mm 1 mps 690 mmHg 53%
    08:00 +29°C° 0 mm 1 mps 690 mmHg 47%
    09:00 +30°C° 0 mm 1 mps 690 mmHg 42%
    10:00 +32°C° 0 mm 1 mps 690 mmHg 37%
    11:00 +34°C° 0 mm 1 mps 690 mmHg 33%
    12:00 +35°C° 0 mm 1 mps 690 mmHg 29%
    13:00 +36°C° 0 mm 1 mps 690 mmHg 27%
    14:00 +37°C° 0 mm 1 mps 690 mmHg 25%
    15:00 +36°C° 0 mm 0 mps 690 mmHg 23%
    16:00 +37°C° 0 mm 1 mps 690 mmHg 24%
    17:00 +38°C° 0 mm 2 mps 690 mmHg 26%
    18:00 +37°C° 0 mm 2 mps 690 mmHg 27%
    19:00 +35°C° 0 mm 3 mps 690 mmHg 32%
    20:00 +33°C° 0 mm 3 mps 690 mmHg 36%
    21:00 +29°C° 0 mm 3 mps 690 mmHg 41%
    22:00 +29°C° 0 mm 3 mps 690 mmHg 43%
    23:00 +28°C° 0 mm 2 mps 690 mmHg 45%

    25 June, Tuesday

    Time Temperature Precipitation Wind Pressure Humidity
    00:00 +27°C° 0 mm 2 mps 690 mmHg 47%
    01:00 +26°C° 0 mm 2 mps 690 mmHg 49%
    02:00 +25°C° 0 mm 2 mps 690 mmHg 51%
    03:00 +25°C° 0 mm 2 mps 690 mmHg 53%
    04:00 +25°C° 0 mm 2 mps 690 mmHg 52%
    05:00 +26°C° 0 mm 2 mps 690 mmHg 51%
    06:00 +27°C° 0 mm 1 mps 690 mmHg 49%
    07:00 +28°C° 0 mm 1 mps 690 mmHg 45%
    08:00 +30°C° 0 mm 1 mps 690 mmHg 40%
    09:00 +32°C° 0 mm 1 mps 691 mmHg 35%
    10:00 +34°C° 0 mm 1 mps 691 mmHg 32%
    11:00 +35°C° 0 mm 1 mps 691 mmHg 29%
    12:00 +37°C° 0 mm 1 mps 691 mmHg 26%
    13:00 +39°C° 0 mm 1 mps 690 mmHg 24%
    14:00 +39°C° 0 mm 1 mps 690 mmHg 21%
    15:00 +40°C° 0 mm 2 mps 690 mmHg 19%
    16:00 +40°C° 0 mm 2 mps 690 mmHg 21%
    17:00 +39°C° 0 mm 2 mps 690 mmHg 23%
    18:00 +39°C° 0 mm 2 mps 690 mmHg 24%
    19:00 +36°C° 0 mm 3 mps 690 mmHg 29%
    20:00 +34°C° 0 mm 3 mps 690 mmHg 34%
    21:00 +30°C° 0 mm 3 mps 690 mmHg 39%
    22:00 +29°C° 0 mm 3 mps 690 mmHg 42%
    23:00 +28°C° 0 mm 2 mps 689 mmHg 44%
    Show more